Wind_Speed
23 23 23 23 22 22 22 22 22 22 22 21 21 21 21 22 21 21 21 21 22 23 24 24 24 24 24 25 26 25 25 24 24 24 18 13 17 19 16 16 15 17 19 17 13 12 13 15 17 18 18 18 17 17 18 19 23 22 17 16 17 13 10 9 6 7 6 8 10 11 9 10 10 11 10 5 8 9 6 8 9 9 9 10 12 15 16 15
23 23 23 22 22 22 21 21 21 21 21 21 20 20 20 21 20 20 21 21 21 22 23 23 23 23 24 26 27 26 26 25 27 22 12 11 18 17 16 17 16 16 19 18 14 12 12 14 16 17 17 17 17 17 19 22 24 22 18 17 19 16 12 9 4 5 5 6 10 12 9 9 7 8 9 5 8 10 6 7 9 11 10 11 12 13 14 16
22 22 22 22 22 21 21 21 20 20 20 20 20 20 20 20 20 20 20 20 21 21 22 22 22 22 23 25 26 25 25 26 27 20 13 16 18 16 17 18 17 16 17 18 16 14 14 15 17 17 18 18 17 18 20 23 24 21 18 18 20 17 10 7 2 1 4 5 6 12 12 11 7 6 8 5 8 11 7 4 6 10 11 13 12 12 13 15
22 22 22 22 22 22 21 21 21 20 20 20 20 20 19 19 20 20 20 20 21 21 21 21 21 21 23 25 24 24 24 26 25 19 19 21 18 17 18 18 18 17 17 19 18 16 17 18 19 19 19 18 18 20 20 23 22 19 19 18 18 15 10 5 1 2 6 8 7 10 13 13 10 8 8 8 10 11 10 7 4 5 8 10 11 13 15 16
22 22 21 21 21 21 21 21 20 20 20 20 20 20 19 19 19 20 20 20 20 20 20 20 20 20 22 24 23 22 23 23 21 20 22 20 19 19 19 19 19 18 19 20 19 17 17 17 20 22 21 21 21 21 20 21 19 18 19 15 11 10 10 4 2 6 11 13 9 8 11 13 11 7 7 10 11 10 11 11 9 8 7 9 11 12 15 15
22 21 21 21 21 21 21 21 20 21 20 20 20 20 19 19 19 20 20 20 20 20 20 20 20 20 22 24 23 22 22 19 15 17 20 19 20 21 20 21 20 20 20 21 20 17 16 18 20 22 22 23 24 22 20 19 15 17 16 11 8 8 10 7 5 9 13 14 12 10 9 10 12 12 14 13 13 14 14 14 12 10 10 11 11 12 13 14
21 21 21 20 21 21 21 21 20 20 20 20 20 20 20 19 19 20 20 20 20 19 20 20 19 19 21 24 22 22 23 18 12 12 14 16 18 19 20 21 21 21 20 21 22 18 16 18 20 22 22 24 25 22 18 15 11 15 14 9 10 10 11 10 9 12 11 11 12 11 10 10 12 14 16 15 15 17 17 17 14 9 9 11 11 12 15 17
21 21 21 20 20 20 20 20 20 20 20 20 20 20 20 20 20 20 20 20 20 20 20 19 19 19 21 23 22 23 22 17 15 13 9 12 16 17 19 21 22 21 20 20 21 19 17 18 20 23 24 25 23 20 14 11 12 17 14 10 13 15 16 13 13 13 11 12 13 13 13 15 15 14 17 17 17 18 16 15 11 9 10 11 11 12 16 18
21 21 20 20 20 20 20 20 20 20 20 20 20 21 20 20 20 20 21 21 21 20 19 19 19 19 21 23 22 22 19 16 17 16 11 11 15 17 18 20 21 21 20 21 21 21 19 17 18 21 23 23 21 19 14 12 14 17 15 11 11 13 15 15 14 13 12 13 12 12 14 16 12 10 15 14 16 18 15 12 10 10 12 13 12 14 17 17
21 20 20 20 19 20 20 20 20 19 20 20 20 21 20 20 20 20 21 21 21 19 18 18 18 20 21 22 22 19 16 15 17 18 16 14 14 16 17 17 19 20 21 22 23 21 18 14 16 20 22 22 21 20 16 13 13 15 15 15 16 15 14 14 14 14 14 13 13 14 14 12 8 9 11 8 12 17 15 13 12 11 13 15 14 14 16 15
20 20 20 20 20 19 19 19 19 19 19 19 20 20 20 20 20 20 21 21 20 19 18 18 18 20 21 21 21 17 15 15 17 20 19 17 15 14 15 17 19 20 21 22 22 20 16 14 18 21 20 21 21 19 16 14 14 14 14 15 19 19 17 17 16 16 16 15 14 12 12 13 13 14 11 6 10 13 13 14 13 12 14 16 15 13 14 15
20 20 20 20 20 19 19 19 19 19 19 19 20 20 20 20 20 20 20 21 20 19 18 18 19 20 21 22 18 14 15 17 18 22 22 21 19 14 15 17 19 20 21 22 21 19 17 17 21 20 19 19 18 17 16 15 16 16 14 14 15 18 19 20 19 19 17 16 14 11 12 16 16 12 7 8 12 13 14 15 14 13 14 15 14 12 14 16
20 20 20 20 20 20 20 19 19 20 19 20 20 19 19 19 20 20 20 20 19 18 17 18 19 19 21 20 14 14 17 18 20 22 22 23 21 17 16 16 18 21 21 21 21 21 21 22 22 20 18 17 15 16 15 13 16 16 14 14 13 16 20 20 20 20 19 19 18 15 14 11 8 5 1 6 12 15 18 18 16 15 16 16 13 12 15 16
19 19 20 20 20 20 20 19 19 19 19 20 19 19 19 19 20 19 19 19 19 18 17 17 18 19 21 18 13 17 19 20 21 18 19 22 20 18 18 17 19 21 21 22 23 23 25 24 21 19 18 17 17 17 14 12 15 15 12 12 14 16 16 15 16 18 19 20 18 18 17 7 3 4 2 3 9 15 20 20 18 17 16 15 14 14 15 16
19 19 19 19 20 20 19 19 19 19 20 20 19 19 19 19 19 18 19 18 18 17 17 17 18 19 20 17 15 18 19 21 17 12 14 19 19 18 18 18 19 21 23 24 25 26 27 23 21 20 19 20 19 16 16 14 13 13 10 8 13 18 13 7 11 16 16 16 15 17 17 5 6 3 3 3 8 14 20 21 20 19 17 16 17 15 15 15
18 18 19 19 19 20 19 19 19 19 19 19 19 18 19 19 19 18 18 18 18 18 18 18 18 18 17 15 17 18 18 18 14 11 12 15 17 17 18 20 21 23 25 25 27 28 26 23 22 22 22 23 20 17 16 15 12 12 12 9 12 19 15 6 7 11 12 14 16 18 17 7 3 1 3 5 10 15 21 22 21 21 20 18 18 16 15 15
18 18 18 18 19 19 18 18 18 18 19 18 18 18 19 19 18 18 18 17 18 17 18 17 16 16 16 15 16 16 15 14 14 14 13 14 15 16 19 23 23 25 26 26 27 27 25 24 24 25 25 24 22 18 16 16 14 14 15 15 15 17 18 12 6 5 8 14 19 21 21 13 5 2 3 6 10 14 21 24 23 22 21 19 16 15 16 17
18 18 18 18 18 18 18 17 17 18 18 17 18 18 18 18 18 19 18 17 18 18 18 17 16 14 13 14 13 9 10 12 13 14 14 15 15 17 21 22 25 27 26 26 27 27 27 26 25 25 26 27 25 21 19 18 17 17 16 16 14 14 16 17 14 11 15 16 20 23 24 20 7 1 2 6 9 11 13 19 21 21 18 16 15 16 19 20
17 17 17 17 17 17 17 16 17 17 17 17 17 17 17 17 18 18 18 19 19 18 17 16 17 14 7 10 12 10 10 12 14 14 14 14 16 20 20 20 25 27 27 27 27 27 27 26 25 27 29 30 28 25 22 18 17 18 14 12 12 13 16 17 18 17 19 18 20 23 25 21 9 3 3 4 6 7 5 9 15 17 15 15 17 18 20 20
16 16 15 16 17 17 16 16 16 16 16 16 16 16 17 17 17 18 19 20 19 18 17 15 16 16 9 10 14 13 14 16 16 15 14 15 18 21 19 16 20 24 26 27 26 26 26 24 25 28 30 30 29 26 23 19 16 16 13 13 14 17 19 17 17 17 19 17 21 22 22 19 10 6 4 4 2 3 5 6 11 14 14 16 17 18 20 18
14 14 14 15 16 16 15 15 15 16 15 15 15 15 16 17 17 18 19 19 19 19 20 17 16 17 14 14 16 15 17 18 17 14 14 18 20 21 20 16 17 21 25 24 21 22 23 24 25 25 26 27 26 25 23 21 19 17 15 15 15 19 21 18 15 14 12 17 21 19 18 15 11 9 7 7 9 7 7 8 11 14 18 19 18 18 17 16
13 14 15 16 16 15 15 14 15 15 15 15 15 15 17 18 17 17 18 18 19 20 20 20 20 18 16 16 17 19 20 19 17 14 15 21 24 23 22 20 18 19 21 21 18 15 19 24 23 20 21 23 23 23 23 22 21 18 16 15 15 16 19 17 11 3 4 15 18 18 17 13 13 14 11 8 11 11 12 14 15 16 18 20 21 19 15 16
12 14 16 17 17 15 15 15 15 15 15 14 14 15 17 19 18 17 17 17 17 18 19 19 20 18 16 19 20 20 21 19 16 14 15 22 26 24 24 22 20 18 18 20 19 15 17 21 19 16 16 20 21 22 23 23 22 19 17 17 16 14 13 14 10 3 5 5 6 14 17 16 15 15 12 8 10 13 14 17 21 19 16 18 21 21 17 15
13 14 16 17 17 17 16 16 16 15 13 12 13 17 19 19 18 17 15 16 16 16 16 17 19 18 15 20 21 21 21 20 16 13 15 22 25 25 25 23 21 20 18 19 20 20 18 13 12 12 14 18 20 21 22 21 21 18 16 18 17 14 11 11 11 8 4 4 3 6 13 15 15 13 11 8 9 12 14 16 18 19 19 18 18 21 18 14
15 15 15 16 18 18 17 17 16 13 12 14 16 20 21 20 18 15 13 13 14 15 15 17 21 18 14 22 24 23 21 20 18 15 16 20 22 24 25 23 23 23 19 18 19 21 17 11 11 12 13 17 20 21 22 19 19 18 16 15 15 17 14 11 11 11 9 6 3 3 5 7 10 10 9 7 9 9 11 12 15 19 22 20 18 17 16 16
17 15 14 15 18 19 17 17 16 14 15 17 19 22 22 20 16 12 11 9 11 15 15 15 18 15 18 27 26 20 18 19 18 16 17 16 16 20 23 24 23 22 19 17 17 20 17 12 12 13 13 16 19 21 20 18 18 18 15 14 15 17 16 12 10 9 8 5 3 4 4 3 5 8 7 7 11 12 12 13 14 17 21 21 21 20 18 19
17 14 13 15 18 19 17 17 16 16 18 18 20 23 21 17 14 11 8 4 7 13 13 14 15 13 19 28 28 21 17 19 20 19 20 18 15 16 20 24 22 19 18 16 17 20 18 14 14 14 15 17 19 19 16 16 18 17 13 12 14 16 15 12 10 11 10 6 4 5 6 5 5 8 9 8 10 13 15 15 15 16 19 22 23 23 20 18
17 13 13 15 17 18 17 16 16 18 19 20 22 22 18 15 13 12 8 1 1 8 10 13 15 12 15 24 29 25 16 16 22 24 22 19 19 19 18 21 20 17 18 18 20 19 14 13 15 15 18 20 21 19 13 13 17 16 14 13 13 15 15 12 10 12 12 9 3 2 2 3 2 4 8 9 10 12 13 13 14 16 17 20 20 17 15 15
16 13 14 15 17 17 15 15 17 19 21 22 21 17 16 15 15 13 6 1 4 8 8 12 16 14 16 22 28 26 16 12 16 22 24 20 21 23 19 18 18 16 17 19 21 19 14 13 13 14 18 20 19 18 17 16 17 16 14 12 11 11 12 11 11 11 11 7 4 5 5 2 1 2 4 7 6 8 10 9 10 13 13 15 16 13 11 12
16 14 14 14 16 16 15 17 20 22 22 19 15 13 15 16 17 12 3 3 8 8 9 13 16 15 18 25 26 24 21 16 9 15 27 25 20 24 21 17 18 19 19 20 22 22 19 17 16 16 17 17 15 16 16 16 15 12 10 9 9 9 11 11 10 10 8 3 4 10 9 3 3 5 6 2 3 2 4 6 5 5 6 8 10 10 10 9
15 14 14 14 15 15 15 18 21 22 20 16 13 16 19 17 16 8 2 6 9 7 11 15 15 15 19 25 27 23 21 21 13 13 27 29 22 23 23 19 21 22 20 20 22 23 23 21 19 17 15 14 14 16 18 16 12 11 11 11 10 9 9 9 6 4 2 1 5 11 11 8 2 7 10 9 9 7 4 3 4 5 6 7 7 7 9 9
14 13 13 14 15 15 17 20 22 21 18 16 14 19 21 15 12 7 4 9 8 6 13 16 17 18 18 22 26 22 20 22 19 16 25 29 25 25 24 21 22 21 17 19 22 21 22 24 21 16 13 14 15 18 21 19 12 11 14 14 9 3 3 4 2 1 2 3 6 9 9 6 4 9 8 6 6 4 2 1 0 1 3 4 4 4 4 6
13 12 13 14 15 16 19 22 22 20 18 16 15 20 20 9 8 12 11 11 7 7 13 16 17 19 19 21 24 20 19 21 18 18 25 27 25 26 24 20 21 20 15 16 20 18 17 19 20 17 14 15 18 18 20 20 15 14 15 13 10 4 3 2 2 1 2 4 5 6 4 4 8 7 4 4 4 3 3 4 5 6 6 6 7 7 6 5
10 11 13 14 14 15 19 20 19 18 18 18 17 20 16 5 7 15 15 12 8 4 9 15 18 20 20 20 20 19 21 21 16 18 26 27 26 25 24 21 20 20 17 13 15 15 12 11 16 19 14 15 20 17 16 18 17 17 16 13 13 8 4 3 2 2 3 4 6 6 4 6 10 6 2 3 2 3 4 5 6 7 8 9 10 11 8 4
9 11 12 13 13 15 18 18 18 19 20 21 20 21 17 9 8 12 11 10 6 6 6 14 20 23 21 17 16 20 23 21 16 19 26 27 26 24 23 22 20 21 20 15 12 13 12 11 12 17 15 13 18 16 14 17 16 17 17 13 13 13 9 7 4 5 6 0 2 5 4 8 13 10 5 4 3 3 5 4 4 6 6 7 9 10 9 5
9 10 11 12 13 15 17 17 18 20 21 23 23 23 19 10 9 8 5 5 7 11 6 19 23 22 23 18 15 17 19 17 17 21 26 26 23 22 20 19 19 22 23 19 15 11 10 12 11 14 16 14 16 17 16 14 12 15 19 16 15 16 17 13 7 7 5 1 3 7 11 12 13 10 6 5 7 8 6 6 7 8 7 8 10 11 12 10
9 9 10 11 12 14 16 17 18 20 22 24 25 24 19 10 7 5 4 3 7 8 7 22 21 18 20 19 17 18 17 16 19 22 25 23 21 20 19 16 15 19 22 22 19 12 9 12 11 13 17 17 16 16 18 15 11 14 20 21 18 15 17 16 7 3 3 1 5 8 15 15 9 5 5 4 7 10 9 8 8 9 10 10 11 12 12 10
9 9 10 11 12 13 15 17 18 20 22 25 25 21 17 12 5 2 2 4 6 2 9 15 12 10 11 11 13 17 19 19 21 22 22 21 18 17 18 18 16 18 21 22 22 16 11 11 10 11 15 18 19 17 17 17 15 14 16 17 17 11 10 14 8 2 3 2 1 5 11 10 4 3 4 2 2 4 7 9 8 9 10 10 10 10 10 8
10 10 11 12 12 13 15 17 18 21 24 26 24 19 17 13 2 4 2 5 5 2 8 9 7 6 5 3 1 8 18 24 25 23 21 19 15 13 14 17 19 21 21 22 23 19 13 9 8 8 10 15 21 20 17 18 18 16 14 14 14 10 7 11 12 7 5 4 2 3 4 3 2 1 2 1 2 3 7 10 11 11 10 9 7 6 7 7
11 12 12 13 13 13 15 17 20 22 23 23 21 17 13 8 2 3 5 8 5 1 5 6 5 6 9 8 9 7 10 25 29 23 20 20 16 15 13 11 13 18 19 19 22 21 17 12 8 8 7 7 13 19 19 20 20 20 19 15 13 13 11 9 12 12 7 4 3 3 2 1 1 1 1 2 3 4 8 10 11 11 9 6 4 4 6 5
14 15 14 15 14 13 16 19 20 21 21 20 20 17 10 1 3 3 5 10 6 1 3 6 6 7 10 10 10 12 11 21 28 20 19 21 17 14 14 10 8 11 12 13 17 19 18 17 15 13 7 4 6 15 20 21 22 23 20 13 9 12 13 7 7 11 10 6 5 6 4 2 3 2 1 3 3 4 6 8 8 7 7 4 2 5 7 5
17 16 16 18 16 15 17 19 19 20 21 20 18 15 7 3 4 4 4 7 3 4 4 4 7 7 9 11 10 12 13 16 19 16 17 19 15 12 15 15 9 8 9 9 13 15 14 17 19 16 6 8 9 8 14 17 21 24 17 9 6 6 9 8 6 8 8 5 7 10 6 4 5 3 3 3 2 3 5 5 3 3 4 3 3 5 6 5
19 16 17 18 16 15 16 16 19 20 19 17 14 11 3 5 3 3 3 1 3 5 5 4 5 6 7 9 9 10 13 15 16 16 16 14 13 11 10 12 9 8 8 7 10 13 12 14 18 14 7 10 9 7 9 11 15 17 12 8 6 3 4 5 5 7 8 7 9 8 5 6 8 6 7 7 4 5 7 5 2 1 2 4 5 6 7 8
19 17 17 16 15 16 16 15 18 17 15 14 11 7 2 4 0 4 4 5 6 5 5 5 6 7 7 8 9 10 12 12 13 14 12 9 9 7 3 4 6 7 7 6 9 12 10 12 15 10 6 7 6 6 7 5 7 10 10 6 6 6 5 5 3 6 6 6 9 7 5 9 13 12 13 11 9 10 10 8 5 3 3 4 7 8 9 10
16 15 17 15 15 18 17 15 15 13 12 12 8 6 6 4 2 5 6 5 5 6 6 4 5 6 6 6 8 9 10 10 10 11 9 8 7 5 2 1 5 7 6 5 9 11 9 9 9 6 4 4 4 6 6 3 3 6 8 5 5 6 3 2 2 5 4 6 10 11 11 16 17 15 15 13 12 13 12 10 9 7 5 5 7 9 9 10
12 14 16 15 15 17 15 14 14 12 11 10 8 7 7 6 4 5 8 7 5 6 8 5 4 6 7 7 5 6 8 8 7 8 8 7 7 5 3 2 2 4 4 4 8 10 9 7 4 3 4 6 6 7 7 3 1 5 5 3 2 1 1 3 1 3 5 9 11 11 16 21 19 17 16 15 14 14 14 11 10 9 7 6 7 7 9 10
12 16 18 16 16 16 16 14 14 14 11 9 9 9 7 6 4 6 8 7 5 7 8 6 4 5 7 7 5 5 6 6 5 7 9 9 8 5 2 1 2 2 2 3 6 9 11 8 5 3 5 7 5 5 5 2 1 2 2 4 5 4 1 1 1 4 9 10 11 12 18 21 21 18 16 15 15 15 13 11 9 8 7 5 6 8 10 11
13 17 19 18 17 17 16 14 13 14 11 9 10 9 6 4 4 6 8 6 4 5 6 5 4 3 5 5 6 6 5 5 8 10 10 9 7 5 3 2 1 2 3 3 5 9 11 10 7 6 8 7 4 4 3 1 2 1 1 3 5 6 4 3 3 10 13 9 10 18 20 19 20 19 15 14 14 12 11 8 7 7 6 5 6 9 10 9
15 19 19 17 16 17 17 14 15 15 11 9 11 9 6 4 4 5 6 5 4 5 7 6 5 3 3 2 6 7 5 6 10 11 9 8 7 5 5 4 2 2 3 4 7 10 12 14 12 10 11 9 5 3 2 1 2 2 3 3 1 3 4 3 5 10 11 10 14 20 21 19 19 19 18 17 14 11 10 8 7 7 6 5 6 8 9 8
17 20 18 16 16 19 17 15 16 15 10 9 9 8 7 6 5 6 4 4 5 6 7 6 4 3 3 3 7 9 7 7 9 11 10 9 8 7 6 5 5 5 5 7 8 9 11 13 12 10 11 11 7 4 1 0 2 3 6 7 6 3 1 2 5 6 9 13 18 20 21 19 17 17 18 17 15 12 9 8 8 7 6 5 7 8 7 5
17 18 16 15 16 19 18 15 14 10 7 7 8 8 9 9 8 8 7 6 6 6 7 6 5 4 5 5 8 8 8 7 8 11 11 12 11 9 8 6 5 4 3 6 8 8 11 14 12 10 11 14 11 6 3 3 4 5 8 9 8 7 6 6 6 6 9 15 18 18 17 15 12 13 13 13 14 12 9 7 7 6 5 6 7 6 3 2
18 18 17 16 16 18 18 15 11 8 8 11 11 10 11 11 9 9 9 9 7 7 8 9 8 6 4 5 7 8 7 5 5 8 11 12 13 11 10 9 5 3 2 4 7 10 13 15 14 11 13 18 15 10 8 8 5 5 7 8 7 6 7 8 8 8 9 13 14 13 13 11 9 8 9 9 10 10 9 8 6 4 5 5 5 4 1 1
Wind_Direction
269 268 268 268 266 265 264 264 263 262 260 259 257 255 253 252 251 250 251 252 253 254 254 254 254 254 253 252 251 249 246 245 246 244 236 230 232 230 223 221 219 208 204 207 203 198 199 199 199 196 193 192 193 196 202 195 184 182 183 197 201 186 160 137 82 57 130 163 169 166 151 142 131 132 146 157 201 213 252 258 259 269 291 300 284 283 278 276
267 266 266 266 265 264 262 262 262 261 260 259 257 256 254 252 251 250 250 250 251 252 252 253 253 253 253 253 252 250 249 247 247 241 226 229 231 225 218 215 215 210 205 204 200 198 199 200 203 198 192 192 190 193 198 191 189 186 187 200 188 160 142 147 90 63 165 191 179 175 164 163 154 152 166 174 203 214 251 262 261 261 271 289 288 292 283 275
264 264 264 263 263 262 260 259 259 258 257 256 256 255 254 252 251 250 249 249 250 250 251 252 252 253 253 253 252 251 250 249 248 238 223 234 229 218 216 212 213 211 205 203 200 199 197 196 198 194 192 190 187 194 196 191 192 190 201 204 178 165 156 152 110 75 214 249 221 195 191 199 193 177 180 185 214 224 241 248 262 257 256 270 276 277 279 286
262 262 261 261 261 260 258 257 256 256 254 253 253 252 252 251 250 249 248 247 248 250 251 251 252 253 253 253 252 251 251 251 250 236 229 234 225 217 215 210 212 211 206 202 200 203 200 197 193 187 189 183 183 194 193 190 192 198 210 195 170 181 181 141 85 272 279 283 247 198 188 196 193 189 188 181 206 234 247 246 278 281 257 257 261 268 281 291
261 260 259 259 259 258 256 255 254 253 252 251 250 249 248 247 247 247 246 246 246 249 250 250 250 251 252 252 252 251 250 253 251 236 233 232 222 220 215 210 212 209 207 202 198 205 204 202 197 189 183 176 183 189 185 186 192 203 211 200 187 213 218 208 297 281 284 282 262 230 203 198 201 224 236 203 205 244 261 260 282 295 281 271 270 280 289 293
259 258 257 257 257 256 255 253 251 251 250 248 247 246 245 243 243 243 244 244 244 246 247 248 248 249 251 251 251 249 247 248 246 236 234 230 220 218 215 211 211 208 207 201 197 203 203 204 202 195 183 175 183 183 178 181 195 214 215 223 234 241 241 234 279 281 273 279 281 265 240 229 231 242 255 240 229 247 257 261 276 284 281 282 286 297 299 298
256 256 255 254 254 254 253 252 250 249 247 246 245 243 242 241 240 240 241 241 240 241 243 245 245 246 249 250 249 247 245 241 238 234 231 228 218 215 214 210 209 208 205 200 199 201 202 205 203 196 184 176 182 179 175 179 207 234 226 233 247 251 254 245 272 285 277 280 285 280 274 268 259 246 243 241 238 248 252 255 262 261 262 276 288 298 301 302
255 254 253 252 252 252 251 250 249 247 246 244 243 241 239 238 238 238 238 238 237 237 239 242 243 243 247 249 247 246 246 238 230 226 218 219 213 209 210 207 207 205 202 200 198 201 204 206 202 196 184 177 180 173 172 194 220 238 238 243 253 254 252 249 261 273 282 282 277 282 289 286 280 259 244 245 244 246 249 250 250 245 256 277 290 299 304 304
252 251 251 249 249 249 249 248 247 245 244 242 242 240 238 236 235 236 236 236 235 235 236 238 240 241 244 247 246 245 244 234 226 223 213 211 209 205 204 203 203 200 199 196 194 201 204 201 201 196 186 178 180 177 186 222 224 227 238 245 252 253 246 246 253 257 271 277 269 282 293 288 281 256 250 253 242 236 241 249 244 246 263 276 285 301 310 309
249 249 248 246 245 245 245 245 244 243 241 240 239 238 236 234 233 234 235 236 235 234 234 235 238 239 241 244 244 243 239 230 224 220 212 209 209 206 205 203 199 197 195 194 194 199 197 198 201 194 187 183 188 191 200 223 223 220 233 241 245 252 248 244 249 248 253 258 261 279 286 280 275 261 256 239 229 234 247 259 253 259 268 268 279 301 312 316
246 245 244 243 242 241 241 241 240 239 237 236 236 235 234 232 231 232 233 235 234 233 233 234 236 239 241 241 241 239 234 227 221 219 212 209 212 205 204 203 198 195 193 193 193 192 189 195 200 191 189 194 198 203 208 221 232 230 235 243 241 245 246 242 244 244 247 251 258 272 271 267 271 269 259 228 232 242 255 266 265 268 267 266 279 297 308 318
244 243 241 240 238 237 237 236 236 235 233 232 232 231 230 229 228 230 232 234 233 233 232 233 236 239 240 240 239 233 227 221 217 220 213 208 210 202 199 199 195 193 190 191 188 185 185 189 193 191 194 203 205 213 216 225 240 237 239 248 235 230 233 235 239 240 243 247 250 259 265 268 268 269 262 240 245 252 257 263 263 263 264 272 277 284 302 313
243 241 240 238 236 235 234 232 232 231 229 228 227 227 227 225 226 227 230 233 233 233 232 234 237 238 239 238 230 218 219 218 217 220 216 208 204 199 196 192 190 188 185 186 183 182 185 186 187 192 204 207 206 217 216 219 233 230 235 245 235 232 233 232 235 238 239 239 240 249 264 279 276 275 228 214 239 252 255 256 258 259 262 271 271 273 293 302
241 239 238 236 234 233 231 229 228 227 225 225 224 223 223 223 224 224 228 230 230 231 230 233 236 237 238 233 216 211 216 222 221 218 215 209 199 194 195 190 186 183 178 179 181 185 187 188 192 200 213 209 207 219 212 208 221 222 229 237 236 239 237 232 236 241 240 236 235 240 253 280 4 319 309 212 235 246 253 256 258 261 261 266 266 269 284 289
237 236 235 234 233 231 229 227 225 223 223 222 220 219 219 221 221 221 224 226 226 227 226 230 233 236 236 227 216 215 218 227 226 207 203 205 196 189 192 192 187 179 174 176 183 188 189 195 205 207 208 205 207 215 210 207 212 214 223 221 226 234 234 228 231 236 233 229 225 227 242 271 50 3 304 259 244 245 253 258 259 259 256 261 264 264 272 279
233 232 231 231 231 230 228 225 222 221 220 219 218 217 217 219 218 218 220 221 221 222 223 227 231 234 235 225 219 221 223 230 233 215 202 199 191 184 187 189 186 180 177 181 188 191 194 201 208 205 200 202 206 206 208 215 210 208 218 212 216 229 237 236 208 218 228 231 226 221 230 250 17 350 219 232 244 246 248 251 256 256 254 261 261 255 261 279
230 228 228 228 230 229 226 223 220 218 218 216 215 215 215 215 214 215 216 217 218 219 221 225 229 232 233 225 221 226 228 226 227 222 205 191 185 181 185 187 185 184 183 188 193 194 199 203 207 206 201 202 205 203 208 217 207 198 209 216 217 227 241 250 237 238 270 255 234 227 226 236 301 336 206 255 274 269 253 244 247 252 257 261 251 247 263 285
229 226 224 225 227 226 224 221 218 217 215 213 214 213 213 212 211 213 213 214 215 216 219 222 222 226 234 229 219 221 224 218 220 219 201 189 185 182 184 185 186 187 188 194 198 199 203 206 208 210 207 206 206 205 209 210 200 194 203 221 233 245 250 259 271 287 305 279 232 226 227 229 271 9 192 309 321 308 265 235 240 248 252 250 241 251 270 287
230 227 224 223 224 223 221 219 217 215 211 211 211 211 211 209 211 212 211 212 213 214 217 220 216 212 217 212 199 194 198 203 211 211 199 190 189 184 178 182 188 189 192 198 201 203 206 209 211 214 212 209 206 208 210 204 195 199 216 247 269 279 272 275 279 279 298 282 225 220 225 222 237 200 199 329 351 337 295 224 231 234 235 241 246 263 279 293
228 226 224 223 221 219 217 216 216 213 208 207 208 208 209 209 210 212 214 214 212 213 216 218 215 208 190 164 171 182 183 189 199 200 193 190 192 186 173 180 193 194 198 200 203 206 208 212 215 216 213 209 209 212 214 212 210 215 237 263 275 282 281 282 279 278 291 267 219 216 221 216 229 219 217 279 256 309 305 245 239 238 246 259 263 275 285 291
226 224 224 224 221 216 213 213 214 211 206 204 204 205 208 208 210 214 216 216 212 213 216 218 220 214 195 164 162 175 177 181 190 190 188 187 188 185 176 180 195 198 198 197 200 205 211 218 218 214 210 209 212 214 215 220 225 230 244 264 275 280 284 283 284 298 288 236 212 206 209 213 225 209 204 253 251 253 264 263 273 275 274 275 277 282 284 283
227 225 225 227 223 214 211 211 212 210 204 202 202 203 208 208 210 217 219 220 218 218 220 224 229 225 204 182 177 180 180 178 181 183 185 185 185 185 183 186 194 196 192 188 190 196 210 220 216 210 208 210 212 213 215 221 225 231 240 260 271 275 282 279 276 321 188 213 207 194 205 224 223 208 209 255 276 269 264 266 275 282 276 268 269 272 278 283
232 228 225 227 223 213 209 210 210 208 203 203 199 199 208 209 213 221 222 228 228 223 227 230 236 237 213 192 187 187 187 182 178 185 187 186 187 187 190 194 195 197 195 189 186 189 208 215 207 202 205 206 209 208 209 216 221 225 234 250 261 268 278 272 255 184 156 225 216 196 212 226 219 214 220 255 298 294 291 280 270 277 280 271 264 260 265 283
236 233 226 223 218 212 209 207 208 207 203 203 194 196 208 210 214 223 228 240 240 227 231 233 236 240 212 187 187 189 189 184 184 198 200 192 190 188 192 199 199 201 205 196 189 197 207 197 182 193 199 198 201 200 202 212 220 228 240 249 256 256 256 262 262 267 283 318 315 229 227 226 223 229 235 260 306 308 311 296 270 268 276 278 270 255 257 280
235 234 228 220 212 211 211 206 205 203 201 202 195 197 208 211 212 223 235 252 250 229 227 230 233 236 198 177 186 190 188 188 194 210 209 198 194 190 191 200 203 204 203 194 195 208 205 170 173 201 201 194 194 194 199 212 227 242 247 237 240 247 245 254 267 282 298 298 283 265 242 228 233 239 245 287 316 310 308 296 267 259 266 277 280 265 258 269
233 235 228 213 207 209 210 205 201 197 197 200 198 201 209 209 207 219 233 262 263 237 231 232 233 231 194 179 182 184 189 195 196 205 208 201 196 193 193 198 203 207 200 187 201 218 209 186 198 213 210 203 200 198 201 214 234 246 240 220 226 242 247 255 266 280 294 283 242 254 268 269 274 264 268 315 320 302 293 290 278 267 270 279 288 284 270 263
231 236 224 208 204 207 207 202 196 193 195 198 200 205 209 205 197 201 214 269 275 239 235 231 220 215 198 185 179 179 189 196 192 198 209 205 197 196 199 200 200 202 195 190 209 218 211 209 217 221 227 225 216 211 206 211 231 239 228 220 233 247 249 248 266 280 279 278 264 261 268 265 282 286 285 309 319 304 298 300 295 286 278 281 289 288 275 266
227 231 221 208 202 204 204 197 193 193 197 200 203 206 205 200 186 174 177 155 230 216 226 221 203 197 195 188 186 189 191 194 194 199 204 204 201 199 203 204 199 193 190 202 216 212 206 216 219 220 231 233 226 226 221 212 227 234 227 232 244 249 244 246 278 286 273 279 284 238 271 252 249 285 281 289 305 306 308 311 302 296 290 289 292 286 272 262
221 223 220 210 202 202 199 191 190 195 201 204 205 203 198 191 173 157 158 160 172 191 206 197 187 185 182 183 192 197 190 185 196 200 198 200 204 203 207 208 203 198 197 210 222 219 216 222 225 229 233 235 233 233 230 217 217 224 227 237 243 237 240 258 290 286 267 274 286 281 307 353 51 347 293 276 293 305 301 296 290 293 295 290 285 273 261 248
213 217 219 209 201 199 193 188 191 198 203 203 198 188 184 178 165 152 140 184 181 194 200 185 181 182 177 178 190 195 189 188 200 200 196 198 199 201 209 211 207 214 215 217 227 230 229 228 234 241 239 236 236 228 214 199 201 214 218 226 235 235 242 260 275 277 277 290 276 275 291 351 42 33 29 43 104 114 264 256 250 258 258 258 256 251 248 234
205 214 216 209 202 195 192 192 196 201 200 194 186 177 174 169 165 159 116 169 175 193 199 185 178 188 184 180 189 195 195 201 213 203 192 194 196 198 208 212 210 218 226 227 231 233 234 233 233 239 240 228 221 213 197 190 210 224 213 217 237 242 236 243 253 255 264 300 272 265 272 292 351 69 62 76 107 119 146 173 173 182 191 205 220 224 230 229
201 213 214 209 199 190 192 196 200 202 195 189 183 173 169 165 176 190 159 162 176 201 202 188 179 193 196 187 191 197 200 205 212 210 196 192 195 198 203 209 208 211 223 231 232 233 236 234 226 228 238 223 207 199 193 198 217 217 208 216 228 220 197 228 241 162 176 246 260 249 258 277 95 93 85 98 107 100 90 83 124 223 210 219 250 262 253 252
203 212 213 208 195 189 198 202 203 201 191 188 182 172 169 165 193 193 168 160 173 188 197 193 186 193 197 191 194 200 201 198 196 203 203 195 192 197 201 206 209 209 214 221 229 237 241 234 225 223 230 221 209 202 197 198 197 201 210 212 202 151 93 232 259 35 252 256 244 234 240 179 128 104 92 101 63 29 21 360 349 332 315 300 295 304 313 293
207 210 211 203 192 195 204 204 203 197 187 185 179 173 175 185 195 188 180 177 177 179 202 202 192 190 196 197 195 191 187 185 183 195 201 195 191 197 201 206 210 212 214 215 223 234 241 239 227 220 221 218 211 210 210 201 190 198 213 214 205 188 140 174 194 154 204 254 256 241 230 171 150 130 120 126 48 355 343 350 360 351 332 319 308 305 313 312
208 206 207 200 195 200 203 200 197 190 184 182 177 176 185 194 175 178 197 205 222 308 266 212 193 185 194 200 191 185 180 176 184 198 199 196 194 196 201 207 209 210 215 217 218 225 238 253 235 214 212 215 210 208 206 200 190 192 204 216 219 214 201 193 196 195 184 152 249 198 147 147 152 149 163 186 206 275 304 311 322 337 335 318 308 304 304 305
206 202 203 200 198 199 197 192 188 187 185 179 177 184 190 181 153 170 222 239 280 315 248 195 190 186 194 200 191 194 193 182 182 188 192 197 198 196 203 211 210 209 212 212 211 210 223 241 231 207 203 200 202 208 204 202 201 193 201 216 218 219 222 213 206 213 189 105 219 165 126 136 154 153 156 186 205 222 253 270 275 289 297 291 291 292 291 287
199 194 198 200 200 197 192 187 184 184 182 175 180 192 190 160 137 183 242 293 310 317 168 171 178 182 193 200 197 202 206 199 191 184 186 195 198 198 207 214 211 212 212 210 212 209 217 235 223 206 209 200 199 215 216 223 233 200 198 216 219 219 224 211 197 199 148 135 233 170 139 144 157 160 154 177 206 215 240 264 269 271 275 280 285 291 293 290
186 187 196 199 198 192 187 186 184 180 178 179 187 193 181 155 115 43 3 340 324 352 125 139 150 161 180 194 203 211 211 199 192 191 188 189 192 198 212 217 214 217 216 214 217 216 223 243 225 207 219 211 206 217 217 220 231 207 192 209 214 211 213 202 192 157 137 179 254 121 127 132 128 158 164 177 219 224 255 271 277 279 280 285 294 300 299 296
182 188 192 191 192 190 186 185 182 179 181 185 187 187 182 180 199 5 360 316 316 80 101 107 114 114 112 91 111 213 209 193 186 192 190 184 181 183 201 212 211 218 220 216 219 217 215 240 239 214 216 209 207 216 212 203 207 207 206 216 216 216 224 212 202 187 165 182 181 101 103 92 70 154 177 283 319 313 296 291 291 289 289 297 312 319 301 286
184 182 180 182 185 187 185 183 181 183 185 186 184 183 184 193 291 336 283 283 291 62 91 105 117 103 95 81 65 79 175 184 184 185 178 176 177 169 175 185 191 210 222 220 221 221 215 224 235 216 200 185 197 212 215 204 198 204 214 221 221 221 225 216 205 198 184 166 155 135 103 86 101 192 219 249 277 286 285 289 291 287 291 309 329 312 286 285
180 178 174 174 175 181 185 184 183 184 186 187 185 179 173 185 6 12 298 288 282 198 113 97 97 103 94 79 66 62 100 165 180 176 160 165 172 172 183 186 170 188 203 209 217 219 218 222 230 231 222 108 150 201 209 204 204 209 211 210 213 218 214 197 194 199 196 196 176 152 135 133 134 120 163 203 215 242 264 280 289 297 311 326 304 264 261 268
176 176 172 168 165 173 183 185 183 186 190 191 186 175 165 352 7 58 348 307 269 198 182 106 89 109 93 65 58 62 82 132 160 154 141 152 158 163 190 208 218 205 193 191 198 202 205 213 222 232 215 97 102 177 184 181 197 204 199 192 197 211 205 196 207 197 176 164 150 138 128 140 145 141 164 175 202 248 254 262 284 327 334 316 289 277 272 268
174 172 170 169 166 167 174 182 187 192 194 188 178 173 154 6 17 102 62 33 144 165 184 147 99 108 93 60 59 79 88 100 117 124 128 144 149 146 174 206 231 231 213 193 177 178 180 192 208 218 191 129 118 151 156 157 191 192 171 172 182 134 130 162 201 194 161 142 141 126 102 146 165 202 211 199 221 237 226 221 223 298 309 303 299 290 287 288
175 165 165 173 171 166 167 178 189 194 193 183 177 177 120 29 283 166 124 124 136 148 162 135 117 123 109 73 67 93 106 99 99 107 111 125 137 129 140 210 237 238 223 199 176 176 175 182 196 201 188 167 157 174 173 159 180 162 129 135 157 133 113 109 163 191 161 148 160 140 115 158 178 206 213 206 213 218 218 211 200 216 252 282 290 286 288 292
180 156 158 172 174 169 166 172 181 183 180 176 173 161 116 94 177 164 135 136 140 160 175 138 113 138 141 110 86 92 108 109 103 105 105 108 115 110 95 183 233 234 226 202 182 180 172 172 186 182 167 179 173 171 174 153 115 111 100 96 129 146 147 105 175 200 167 156 166 154 148 163 180 199 205 207 209 209 214 208 200 216 241 266 284 294 300 297
181 154 158 171 171 165 160 161 165 162 162 164 162 154 124 113 156 155 141 141 120 136 161 156 142 149 148 147 132 105 110 109 105 115 123 124 128 128 104 103 213 235 245 210 182 182 172 149 151 166 139 133 130 135 153 177 95 86 78 45 53 119 127 110 162 214 167 148 145 158 172 172 178 195 203 207 209 212 218 216 214 228 243 258 276 292 304 304
168 158 163 163 159 156 152 152 153 150 152 156 157 158 135 117 149 162 159 155 124 127 143 148 168 154 129 138 141 117 118 110 102 128 137 137 140 144 132 129 168 199 242 209 175 186 185 152 113 102 103 93 96 115 134 202 226 106 59 360 351 338 324 158 199 184 169 149 132 162 185 180 178 191 203 207 209 215 223 227 226 227 231 250 275 288 297 302
161 157 159 154 152 155 151 146 145 148 153 154 152 155 146 133 152 154 160 162 140 156 167 157 162 142 113 134 140 132 151 138 111 123 134 132 135 145 138 130 197 209 216 199 166 173 172 147 130 134 117 97 89 103 108 208 202 128 17 348 340 325 308 273 205 176 181 185 169 178 189 187 181 183 189 195 204 216 227 234 237 237 244 257 271 278 282 289
156 154 154 152 153 153 146 139 142 147 152 150 147 147 142 151 167 151 158 174 158 165 174 161 153 133 84 128 147 140 164 162 126 123 130 124 118 124 115 96 94 138 152 161 168 171 154 133 135 147 133 120 127 120 84 221 175 121 100 102 50 317 305 265 196 181 186 193 184 183 187 188 184 183 188 196 207 225 237 241 246 253 266 272 270 277 282 283
152 156 154 152 155 149 137 133 139 139 134 139 148 152 143 138 140 129 128 160 162 162 166 155 142 131 111 154 160 136 126 147 148 141 138 128 114 103 94 90 94 102 111 122 142 173 169 147 150 161 140 130 149 160 117 259 210 161 131 125 128 141 165 182 180 175 164 164 175 184 185 183 184 187 193 202 211 221 232 246 255 258 270 281 278 287 307 310
150 155 151 146 149 143 131 127 132 128 123 141 152 160 155 139 133 134 125 127 145 167 185 185 173 160 145 156 169 151 131 146 164 154 142 135 130 115 95 93 82 58 78 115 120 146 162 155 163 177 154 147 164 182 179 194 195 156 135 132 135 144 154 160 163 164 157 160 172 182 180 175 179 186 193 203 209 213 225 244 253 256 261 269 271 277 319 26
150 150 141 137 137 135 131 131 136 140 149 152 149 154 160 151 149 159 147 131 137 157 183 202 207 204 188 167 172 177 173 176 179 165 152 142 138 129 116 117 112 62 68 114 124 137 147 150 160 170 158 157 169 181 171 164 154 120 114 119 132 152 162 157 153 158 164 168 176 185 182 178 179 184 193 205 210 217 231 239 243 254 261 268 271 268 245 221
Height
3090 3090 3090 3091 3091 3092 3092 3092 3093 3094 3094 3095 3095 3095 3096 3096 3096 3097 3097 3098 3099 3099 3099 3100 3101 3102 3103 3103 3103 3105 3105 3105 3105 3106 3108 3110 3110 3110 3112 3112 3113 3115 3116 3117 3118 3120 3120 3121 3122 3122 3123 3125 3126 3127 3129 3130 3131 3130 3130 3130 3130 3132 3133 3134 3135 3136 3138 3138 3139 3139 3139 3139 3139 3139 3140 3139 3137 3137 3137 3138 3139 3140 3141 3141 3140 3140 3140 3139
3087 3087 3087 3088 3088 3089 3089 3090 3090 3091 3092 3092 3093 3093 3093 3094 3094 3094 3094 3095 3096 3096 3096 3097 3098 3099 3100 3100 3101 3102 3103 3103 3103 3105 3108 3108 3107 3108 3110 3110 3112 3113 3115 3116 3117 3118 3119 3120 3121 3121 3123 3124 3125 3126 3128 3129 3129 3129 3129 3129 3129 3130 3132 3133 3135 3136 3137 3138 3138 3139 3138 3138 3138 3138 3138 3138 3137 3137 3137 3138 3138 3139 3140 3140 3139 3139 3138 3137
3083 3084 3084 3085 3086 3086 3087 3087 3088 3088 3089 3089 3090 3090 3091 3091 3091 3092 3092 3092 3093 3093 3094 3094 3095 3096 3097 3097 3098 3100 3101 3101 3100 3104 3107 3104 3104 3107 3107 3109 3110 3111 3113 3114 3116 3116 3117 3118 3119 3120 3121 3122 3124 3125 3126 3128 3128 3128 3128 3127 3127 3129 3131 3132 3134 3135 3137 3137 3137 3138 3138 3138 3137 3137 3137 3137 3137 3136 3137 3137 3137 3138 3139 3139 3139 3138 3137 3137
3080 3081 3081 3082 3083 3083 3084 3084 3085 3086 3086 3087 3087 3088 3088 3089 3089 3089 3089 3089 3090 3090 3091 3092 3093 3094 3094 3095 3096 3098 3098 3098 3099 3103 3103 3101 3103 3105 3106 3107 3108 3110 3111 3112 3114 3115 3115 3115 3116 3118 3119 3121 3123 3124 3125 3126 3127 3128 3127 3127 3128 3129 3130 3132 3133 3135 3136 3137 3137 3137 3137 3136 3136 3136 3136 3136 3136 3136 3136 3137 3137 3137 3138 3138 3138 3137 3137 3137
3077 3078 3079 3079 3080 3081 3081 3082 3082 3083 3084 3084 3085 3085 3086 3086 3087 3087 3087 3087 3087 3088 3089 3090 3090 3091 3092 3092 3094 3095 3096 3096 3097 3100 3099 3099 3102 3103 3104 3105 3106 3108 3109 3110 3112 3113 3113 3114 3115 3116 3117 3119 3121 3122 3123 3125 3126 3126 3125 3127 3129 3130 3130 3131 3133 3134 3135 3136 3136 3136 3136 3135 3135 3135 3135 3135 3136 3135 3135 3135 3135 3135 3136 3137 3137 3137 3137 3137
3074 3075 3076 3076 3077 3078 3079 3079 3080 3081 3081 3082 3082 3083 3084 3084 3084 3085 3085 3085 3085 3086 3086 3087 3088 3089 3089 3090 3092 3093 3093 3094 3096 3097 3097 3098 3099 3100 3102 3103 3105 3106 3107 3109 3110 3111 3112 3113 3114 3115 3116 3117 3119 3121 3122 3124 3124 3124 3124 3125 3128 3129 3129 3130 3131 3133 3134 3134 3134 3134 3134 3134 3134 3134 3134 3134 3135 3134 3134 3134 3134 3134 3135 3135 3135 3136 3137 3137
3071 3072 3073 3073 3074 3075 3076 3077 3077 3078 3079 3080 3080 3081 3081 3082 3082 3082 3083 3083 3083 3083 3084 3085 3086 3087 3087 3087 3089 3090 3091 3093 3095 3095 3095 3096 3097 3098 3100 3101 3103 3104 3106 3107 3109 3110 3111 3111 3113 3115 3116 3117 3118 3120 3122 3123 3123 3122 3122 3124 3126 3128 3128 3129 3130 3132 3133 3132 3132 3132 3132 3133 3133 3133 3132 3133 3133 3133 3133 3132 3132 3133 3133 3134 3135 3135 3136 3135
3068 3069 3069 3070 3071 3072 3073 3074 3075 3075 3076 3077 3078 3078 3079 3079 3080 3080 3080 3081 3080 3081 3082 3083 3084 3085 3085 3085 3087 3088 3089 3092 3093 3094 3094 3094 3095 3096 3098 3099 3100 3102 3104 3106 3108 3109 3110 3111 3112 3114 3115 3116 3118 3119 3121 3122 3121 3121 3121 3123 3125 3127 3127 3128 3129 3131 3131 3131 3131 3130 3130 3130 3131 3131 3130 3130 3131 3131 3131 3130 3131 3132 3132 3133 3134 3135 3135 3134
3065 3066 3066 3067 3068 3069 3070 3071 3072 3073 3074 3074 3075 3076 3076 3077 3078 3078 3078 3078 3078 3078 3080 3081 3082 3083 3083 3083 3085 3086 3088 3090 3091 3092 3093 3093 3094 3095 3096 3097 3098 3101 3102 3104 3106 3107 3108 3110 3112 3113 3115 3116 3117 3118 3119 3120 3120 3119 3121 3123 3124 3125 3126 3127 3128 3129 3129 3129 3129 3129 3129 3128 3129 3128 3128 3128 3128 3128 3128 3129 3130 3131 3131 3132 3133 3134 3133 3133
3062 3063 3063 3064 3065 3066 3067 3068 3069 3070 3071 3072 3072 3073 3074 3075 3075 3076 3076 3076 3076 3077 3078 3079 3080 3080 3081 3082 3083 3084 3086 3088 3089 3090 3091 3092 3093 3093 3094 3096 3097 3099 3100 3102 3104 3106 3108 3111 3112 3113 3114 3114 3115 3115 3117 3118 3118 3118 3119 3121 3122 3123 3125 3125 3126 3127 3127 3127 3127 3127 3127 3127 3127 3126 3126 3126 3126 3126 3127 3128 3129 3129 3130 3131 3132 3133 3132 3132
3059 3060 3060 3061 3062 3063 3064 3065 3066 3067 3068 3069 3070 3071 3072 3072 3073 3073 3074 3074 3074 3075 3075 3077 3077 3078 3079 3080 3081 3083 3085 3086 3087 3087 3088 3090 3091 3092 3093 3094 3095 3097 3099 3101 3103 3106 3108 3110 3111 3111 3111 3111 3112 3114 3115 3116 3117 3117 3117 3118 3119 3121 3122 3123 3124 3125 3125 3126 3126 3126 3126 3126 3126 3124 3124 3125 3124 3124 3125 3126 3127 3129 3129 3130 3131 3132 3131 3131
3056 3057 3057 3058 3059 3060 3061 3062 3064 3065 3065 3066 3067 3068 3069 3070 3070 3071 3071 3072 3072 3073 3073 3074 3075 3076 3077 3078 3080 3083 3083 3083 3084 3084 3085 3087 3089 3091 3091 3092 3094 3096 3098 3100 3103 3105 3107 3108 3109 3109 3108 3109 3111 3113 3114 3115 3115 3116 3117 3116 3117 3118 3118 3120 3121 3122 3123 3124 3125 3125 3125 3124 3123 3123 3123 3124 3123 3123 3124 3125 3126 3128 3129 3129 3130 3131 3131 3131
3053 3054 3055 3056 3056 3057 3058 3059 3061 3062 3063 3063 3064 3066 3067 3068 3068 3068 3069 3070 3071 3071 3071 3072 3073 3074 3075 3077 3080 3081 3080 3081 3082 3082 3083 3085 3086 3088 3090 3091 3093 3094 3097 3100 3102 3103 3104 3105 3105 3106 3107 3108 3109 3111 3112 3114 3114 3115 3116 3115 3116 3116 3116 3117 3119 3121 3122 3123 3124 3125 3125 3122 3122 3123 3122 3123 3123 3122 3122 3123 3125 3127 3128 3129 3130 3130 3130 3130
3051 3051 3052 3053 3054 3055 3056 3057 3058 3059 3060 3061 3062 3063 3065 3065 3065 3066 3067 3068 3069 3069 3069 3069 3071 3072 3073 3076 3078 3077 3077 3078 3079 3081 3083 3084 3084 3086 3089 3090 3092 3093 3095 3098 3099 3101 3102 3102 3102 3103 3105 3106 3108 3109 3111 3112 3113 3113 3114 3114 3115 3115 3114 3116 3119 3119 3120 3122 3123 3124 3124 3121 3121 3122 3122 3123 3123 3122 3121 3122 3124 3126 3127 3128 3129 3129 3129 3130
3048 3048 3049 3050 3051 3052 3053 3054 3055 3056 3057 3058 3060 3061 3062 3063 3063 3064 3065 3065 3066 3067 3067 3067 3068 3070 3071 3074 3075 3075 3075 3076 3078 3081 3082 3083 3083 3085 3087 3090 3091 3092 3094 3095 3096 3098 3099 3100 3100 3102 3104 3105 3106 3108 3110 3110 3110 3111 3112 3112 3114 3114 3114 3115 3117 3117 3118 3120 3122 3123 3122 3120 3120 3120 3121 3122 3122 3121 3120 3120 3122 3124 3126 3127 3128 3128 3129 3130
3045 3046 3047 3048 3049 3049 3050 3051 3052 3053 3055 3056 3057 3058 3060 3060 3061 3062 3062 3063 3064 3064 3064 3064 3067 3069 3071 3072 3073 3073 3075 3076 3078 3080 3081 3082 3083 3084 3086 3088 3090 3091 3092 3093 3095 3096 3097 3098 3099 3101 3103 3104 3106 3108 3109 3109 3109 3110 3111 3112 3113 3113 3113 3114 3116 3116 3118 3119 3120 3121 3120 3118 3119 3120 3121 3121 3121 3121 3119 3119 3121 3122 3124 3126 3127 3128 3128 3129
3043 3043 3044 3045 3046 3047 3048 3049 3050 3051 3052 3054 3055 3056 3057 3058 3059 3059 3060 3061 3062 3061 3062 3063 3066 3068 3069 3070 3071 3073 3074 3076 3077 3078 3080 3081 3082 3083 3085 3086 3088 3089 3091 3092 3094 3095 3095 3097 3098 3100 3102 3103 3105 3107 3107 3107 3108 3109 3110 3110 3111 3112 3113 3114 3114 3115 3117 3117 3117 3118 3118 3117 3118 3119 3120 3120 3119 3118 3116 3117 3119 3121 3123 3124 3126 3127 3127 3128
3040 3041 3041 3042 3043 3044 3046 3047 3047 3048 3050 3051 3053 3054 3055 3056 3056 3057 3057 3058 3059 3059 3060 3062 3065 3067 3068 3068 3070 3072 3073 3075 3076 3076 3078 3079 3080 3082 3083 3085 3087 3088 3089 3090 3092 3093 3094 3095 3097 3099 3100 3101 3103 3104 3104 3105 3107 3108 3109 3109 3111 3112 3113 3113 3113 3113 3114 3113 3114 3115 3116 3116 3117 3118 3119 3118 3117 3115 3114 3114 3117 3120 3122 3123 3125 3126 3126 3127
3038 3039 3039 3040 3041 3042 3043 3045 3045 3046 3048 3049 3050 3052 3053 3054 3054 3054 3055 3055 3056 3057 3058 3060 3063 3065 3066 3067 3068 3070 3071 3073 3074 3075 3076 3078 3079 3080 3082 3084 3085 3086 3087 3088 3090 3091 3093 3094 3095 3095 3096 3098 3100 3102 3103 3105 3107 3108 3109 3109 3111 3111 3111 3111 3111 3111 3111 3110 3111 3112 3113 3115 3117 3117 3118 3117 3116 3115 3114 3115 3118 3119 3121 3122 3123 3124 3125 3125
3036 3036 3037 3037 3038 3040 3041 3042 3043 3044 3045 3047 3048 3050 3050 3051 3051 3051 3052 3052 3054 3055 3057 3059 3061 3064 3065 3065 3066 3067 3068 3070 3072 3073 3075 3077 3078 3079 3080 3082 3084 3084 3085 3087 3088 3090 3091 3092 3092 3092 3094 3097 3100 3102 3104 3106 3107 3107 3108 3109 3110 3109 3108 3109 3109 3110 3109 3107 3108 3110 3111 3114 3116 3116 3116 3117 3118 3118 3117 3117 3118 3120 3121 3121 3122 3123 3124 3125
3034 3034 3035 3035 3036 3037 3039 3040 3041 3042 3043 3045 3046 3047 3048 3049 3049 3049 3049 3051 3052 3053 3055 3057 3059 3062 3064 3064 3064 3065 3066 3068 3070 3072 3074 3075 3076 3077 3078 3080 3082 3082 3083 3086 3088 3089 3089 3089 3089 3091 3094 3097 3100 3102 3103 3105 3106 3107 3108 3109 3109 3108 3107 3107 3108 3108 3107 3106 3107 3109 3111 3113 3115 3115 3116 3117 3118 3119 3119 3119 3119 3119 3120 3121 3122 3122 3123 3124
3032 3032 3033 3033 3034 3036 3037 3038 3039 3040 3041 3043 3044 3045 3046 3047 3047 3047 3048 3050 3051 3052 3053 3055 3057 3059 3062 3063 3063 3063 3064 3065 3067 3070 3071 3073 3074 3075 3076 3078 3080 3081 3083 3084 3085 3087 3087 3087 3088 3091 3094 3096 3098 3101 3102 3104 3105 3106 3107 3108 3108 3107 3106 3106 3107 3106 3105 3107 3108 3109 3110 3112 3113 3114 3116 3117 3118 3119 3119 3119 3118 3118 3119 3119 3120 3120 3122 3122
3030 3030 3031 3032 3033 3034 3035 3036 3037 3038 3040 3041 3043 3044 3044 3045 3046 3046 3047 3048 3049 3050 3052 3053 3055 3057 3060 3062 3061 3062 3062 3063 3065 3067 3069 3071 3072 3074 3075 3076 3078 3080 3082 3082 3083 3085 3085 3085 3088 3091 3093 3095 3097 3099 3101 3102 3103 3104 3106 3107 3107 3107 3106 3105 3105 3105 3105 3106 3108 3109 3110 3111 3113 3114 3115 3116 3117 3117 3117 3117 3117 3116 3116 3117 3117 3119 3120 3121
3028 3029 3029 3030 3031 3033 3033 3034 3035 3037 3039 3040 3042 3042 3042 3043 3044 3045 3046 3046 3047 3048 3050 3052 3053 3054 3057 3059 3060 3060 3061 3062 3063 3066 3068 3069 3071 3072 3074 3076 3077 3079 3080 3081 3083 3083 3083 3084 3088 3091 3092 3093 3095 3097 3098 3100 3101 3102 3104 3105 3106 3105 3105 3104 3104 3105 3105 3106 3107 3109 3110 3111 3112 3114 3114 3115 3116 3116 3115 3114 3113 3113 3113 3114 3115 3117 3119 3120
3026 3027 3027 3028 3030 3031 3031 3033 3034 3036 3037 3038 3039 3039 3040 3041 3043 3044 3045 3045 3045 3046 3048 3049 3049 3051 3054 3056 3057 3059 3060 3060 3062 3064 3067 3068 3069 3071 3073 3075 3076 3077 3079 3081 3082 3082 3082 3085 3087 3089 3091 3092 3094 3095 3096 3098 3099 3101 3102 3103 3104 3104 3104 3104 3104 3105 3106 3106 3107 3108 3110 3110 3111 3112 3113 3114 3115 3114 3113 3112 3111 3111 3111 3111 3113 3115 3118 3118
3024 3025 3025 3026 3028 3029 3030 3031 3033 3034 3035 3036 3037 3037 3037 3039 3042 3044 3045 3045 3043 3043 3045 3046 3047 3048 3050 3052 3054 3058 3059 3059 3061 3063 3065 3067 3069 3071 3072 3073 3075 3076 3078 3081 3082 3081 3081 3084 3086 3087 3089 3091 3092 3093 3095 3097 3098 3099 3100 3101 3103 3102 3103 3104 3105 3105 3106 3107 3107 3108 3109 3110 3110 3111 3113 3114 3113 3111 3111 3111 3110 3110 3109 3109 3111 3113 3115 3115
3022 3023 3023 3025 3026 3027 3028 3029 3031 3032 3033 3034 3035 3035 3037 3039 3041 3042 3044 3045 3042 3041 3043 3044 3045 3046 3048 3050 3053 3055 3056 3057 3060 3062 3063 3066 3069 3070 3071 3072 3073 3075 3078 3080 3081 3079 3079 3083 3085 3086 3088 3090 3091 3092 3093 3095 3096 3097 3098 3100 3101 3101 3102 3103 3104 3105 3106 3106 3107 3108 3108 3109 3110 3111 3112 3113 3110 3110 3110 3109 3110 3110 3109 3108 3109 3110 3112 3111
3020 3021 3022 3023 3024 3026 3027 3028 3029 3031 3032 3033 3033 3034 3037 3039 3040 3041 3044 3044 3041 3039 3041 3042 3044 3045 3047 3050 3051 3052 3054 3055 3057 3060 3062 3065 3067 3069 3070 3071 3073 3074 3077 3079 3078 3077 3079 3082 3083 3085 3087 3088 3090 3090 3092 3094 3095 3096 3097 3098 3099 3100 3100 3101 3102 3103 3104 3105 3106 3107 3108 3108 3110 3110 3111 3112 3109 3108 3109 3109 3109 3110 3109 3108 3107 3107 3109 3109
3018 3019 3020 3021 3023 3024 3026 3027 3028 3029 3030 3031 3032 3034 3037 3039 3040 3040 3043 3042 3038 3038 3039 3040 3042 3043 3045 3048 3049 3051 3054 3055 3056 3059 3061 3064 3066 3067 3069 3071 3073 3074 3076 3078 3076 3076 3079 3081 3083 3085 3085 3086 3088 3089 3091 3092 3093 3094 3096 3097 3098 3099 3099 3099 3100 3101 3102 3103 3104 3105 3106 3107 3110 3110 3110 3110 3109 3108 3109 3109 3109 3109 3109 3109 3107 3107 3108 3108
3017 3018 3018 3020 3021 3023 3024 3026 3027 3027 3029 3031 3033 3035 3036 3038 3038 3039 3041 3040 3036 3037 3039 3039 3041 3042 3044 3046 3048 3050 3053 3054 3056 3058 3060 3062 3065 3067 3069 3071 3072 3073 3075 3077 3076 3076 3078 3079 3082 3083 3084 3085 3087 3088 3089 3091 3092 3093 3095 3096 3097 3098 3098 3099 3099 3099 3100 3102 3102 3103 3104 3105 3109 3110 3109 3109 3109 3109 3109 3109 3109 3108 3108 3108 3108 3108 3108 3108
3015 3016 3017 3019 3020 3022 3024 3025 3025 3026 3028 3031 3032 3033 3035 3037 3038 3038 3038 3036 3035 3037 3038 3038 3040 3041 3042 3044 3046 3048 3051 3053 3055 3057 3058 3061 3063 3065 3067 3069 3070 3072 3074 3075 3074 3074 3075 3077 3079 3080 3082 3084 3085 3086 3088 3090 3091 3092 3093 3095 3096 3096 3097 3098 3099 3099 3102 3103 3102 3103 3104 3105 3108 3111 3110 3110 3110 3109 3108 3109 3109 3109 3108 3108 3107 3107 3108 3108
3014 3015 3016 3018 3019 3021 3022 3023 3024 3025 3028 3030 3031 3032 3033 3036 3036 3035 3034 3034 3035 3036 3036 3037 3039 3040 3041 3043 3045 3047 3049 3052 3054 3056 3057 3059 3061 3062 3064 3066 3067 3069 3071 3073 3073 3073 3073 3074 3077 3079 3080 3082 3083 3084 3086 3087 3089 3090 3091 3093 3095 3096 3097 3098 3099 3101 3103 3103 3103 3104 3105 3106 3108 3110 3110 3110 3109 3108 3108 3108 3108 3108 3108 3107 3107 3107 3108 3108
3013 3014 3015 3016 3018 3020 3021 3021 3023 3024 3026 3028 3030 3031 3033 3035 3033 3031 3032 3033 3034 3035 3036 3037 3038 3039 3041 3042 3045 3047 3049 3051 3053 3054 3056 3058 3060 3061 3063 3065 3066 3068 3070 3071 3072 3072 3072 3073 3075 3076 3078 3079 3081 3082 3083 3085 3087 3089 3090 3091 3093 3095 3097 3099 3100 3102 3103 3102 3102 3103 3103 3105 3107 3109 3109 3109 3108 3108 3108 3108 3107 3107 3106 3106 3105 3106 3106 3107
3011 3013 3014 3016 3017 3019 3019 3020 3022 3023 3025 3027 3029 3031 3033 3032 3030 3030 3032 3033 3034 3036 3037 3037 3038 3039 3040 3041 3043 3045 3047 3050 3052 3053 3055 3057 3059 3060 3062 3064 3066 3067 3069 3070 3071 3071 3072 3072 3073 3075 3076 3077 3079 3080 3082 3084 3086 3088 3089 3091 3091 3092 3095 3098 3099 3101 3101 3101 3101 3102 3103 3104 3105 3107 3108 3108 3108 3108 3107 3108 3107 3106 3104 3104 3103 3103 3103 3105
3010 3012 3013 3015 3016 3017 3018 3019 3021 3022 3024 3025 3028 3030 3031 3030 3029 3030 3032 3033 3035 3036 3036 3037 3038 3039 3040 3042 3043 3045 3047 3048 3050 3052 3054 3056 3057 3059 3060 3062 3064 3066 3068 3069 3070 3070 3071 3071 3072 3074 3075 3076 3078 3079 3081 3083 3085 3086 3088 3089 3090 3091 3093 3096 3098 3099 3099 3100 3100 3101 3103 3103 3103 3105 3107 3107 3108 3108 3108 3108 3107 3106 3104 3103 3102 3102 3102 3102
3009 3011 3012 3014 3015 3015 3016 3018 3019 3021 3023 3025 3027 3028 3028 3029 3030 3031 3032 3033 3034 3034 3033 3034 3037 3038 3039 3041 3043 3045 3047 3048 3050 3051 3053 3054 3056 3058 3059 3061 3063 3064 3065 3067 3068 3069 3070 3070 3071 3073 3074 3075 3077 3078 3080 3082 3084 3085 3086 3088 3089 3091 3092 3093 3096 3097 3099 3101 3100 3100 3103 3104 3104 3104 3105 3106 3107 3108 3107 3107 3106 3106 3105 3104 3102 3101 3101 3101
3009 3011 3012 3013 3013 3014 3015 3017 3019 3020 3023 3025 3026 3027 3028 3030 3031 3031 3032 3032 3033 3032 3031 3033 3036 3038 3039 3041 3043 3045 3046 3048 3050 3051 3052 3054 3056 3058 3059 3060 3062 3063 3064 3065 3067 3068 3069 3069 3070 3071 3073 3074 3076 3078 3079 3081 3082 3083 3085 3086 3088 3090 3091 3092 3094 3096 3099 3101 3099 3099 3101 3103 3104 3104 3104 3105 3106 3107 3106 3104 3105 3105 3104 3103 3102 3101 3101 3100
3009 3010 3011 3012 3013 3014 3015 3017 3019 3020 3023 3024 3025 3027 3029 3030 3031 3031 3032 3032 3032 3031 3031 3032 3035 3037 3038 3040 3042 3043 3044 3046 3048 3050 3051 3053 3055 3057 3058 3059 3060 3061 3062 3064 3066 3067 3068 3069 3069 3070 3071 3073 3075 3077 3078 3079 3081 3082 3084 3085 3086 3088 3088 3090 3091 3094 3097 3099 3099 3100 3101 3102 3103 3103 3103 3104 3105 3105 3104 3103 3103 3103 3103 3103 3102 3102 3102 3100
3008 3009 3010 3011 3012 3014 3015 3017 3019 3020 3022 3023 3025 3027 3029 3030 3030 3031 3031 3032 3032 3032 3031 3032 3034 3035 3037 3039 3039 3040 3041 3043 3045 3048 3050 3052 3054 3055 3056 3057 3058 3058 3060 3062 3064 3066 3068 3068 3069 3070 3070 3071 3073 3074 3075 3077 3079 3081 3083 3084 3084 3085 3086 3087 3088 3089 3093 3096 3098 3101 3103 3103 3104 3104 3103 3104 3104 3104 3104 3103 3103 3102 3102 3102 3102 3102 3101 3100
3008 3008 3009 3011 3012 3013 3015 3017 3018 3020 3021 3023 3025 3027 3029 3030 3030 3030 3030 3031 3032 3032 3032 3033 3034 3035 3037 3038 3038 3038 3039 3040 3043 3046 3048 3050 3053 3054 3055 3056 3057 3057 3059 3061 3063 3065 3067 3068 3068 3069 3070 3071 3072 3073 3074 3076 3077 3078 3080 3081 3082 3083 3084 3085 3086 3087 3089 3092 3094 3098 3102 3104 3103 3103 3103 3103 3103 3103 3103 3102 3102 3102 3102 3102 3101 3101 3100 3099
3007 3008 3009 3010 3011 3013 3015 3017 3018 3020 3022 3024 3025 3027 3030 3030 3029 3029 3030 3030 3031 3032 3032 3033 3034 3036 3037 3038 3038 3038 3038 3040 3042 3045 3046 3048 3051 3052 3053 3055 3057 3058 3059 3060 3061 3063 3065 3067 3067 3068 3070 3071 3071 3071 3072 3073 3075 3076 3077 3078 3079 3080 3082 3083 3084 3085 3086 3088 3090 3093 3099 3103 3102 3102 3103 3102 3102 3102 3101 3101 3101 3101 3101 3101 3100 3099 3099 3099
3007 3008 3008 3009 3011 3013 3015 3017 3019 3020 3022 3023 3026 3028 3030 3029 3029 3029 3029 3029 3030 3031 3032 3033 3035 3036 3037 3038 3039 3038 3038 3040 3042 3044 3045 3047 3049 3051 3052 3054 3056 3057 3059 3059 3060 3062 3064 3065 3066 3067 3070 3071 3070 3070 3071 3073 3074 3074 3075 3077 3078 3079 3080 3081 3083 3084 3084 3086 3087 3089 3095 3100 3101 3101 3101 3101 3100 3100 3100 3100 3100 3100 3100 3100 3099 3098 3098 3098
3006 3007 3009 3010 3011 3012 3014 3017 3019 3020 3021 3024 3026 3028 3029 3029 3029 3030 3029 3029 3029 3030 3032 3033 3035 3037 3038 3039 3040 3039 3039 3041 3043 3044 3046 3048 3049 3051 3053 3054 3055 3056 3058 3059 3060 3061 3062 3064 3065 3066 3069 3070 3070 3070 3072 3074 3073 3072 3073 3075 3077 3078 3079 3080 3082 3082 3083 3085 3086 3088 3094 3099 3100 3100 3100 3100 3100 3099 3099 3099 3099 3099 3099 3099 3098 3098 3097 3097
3005 3007 3009 3010 3011 3012 3014 3016 3018 3019 3021 3024 3026 3027 3028 3028 3030 3031 3030 3029 3030 3031 3032 3034 3035 3037 3038 3040 3040 3039 3039 3041 3044 3045 3046 3048 3050 3051 3053 3054 3054 3055 3057 3058 3059 3060 3061 3062 3063 3064 3066 3069 3069 3069 3071 3073 3073 3072 3073 3074 3076 3077 3078 3080 3081 3081 3082 3084 3085 3087 3093 3097 3097 3098 3099 3098 3098 3098 3098 3098 3098 3098 3098 3097 3097 3097 3097 3097
3005 3007 3008 3010 3011 3013 3014 3016 3018 3019 3021 3024 3025 3027 3027 3028 3029 3030 3030 3030 3031 3032 3033 3034 3036 3037 3039 3040 3041 3041 3041 3042 3043 3045 3046 3048 3050 3052 3052 3053 3053 3054 3055 3057 3059 3060 3061 3062 3062 3062 3064 3066 3067 3068 3069 3071 3072 3073 3073 3074 3076 3077 3078 3079 3081 3081 3082 3083 3083 3084 3089 3093 3095 3096 3097 3097 3097 3096 3097 3097 3098 3098 3097 3096 3096 3096 3096 3096
3006 3007 3008 3010 3012 3013 3015 3017 3018 3020 3022 3024 3025 3026 3027 3028 3029 3030 3030 3031 3032 3033 3034 3035 3036 3037 3038 3040 3041 3041 3041 3042 3043 3045 3046 3048 3050 3051 3052 3052 3053 3054 3055 3056 3058 3060 3061 3062 3062 3062 3062 3064 3066 3067 3069 3070 3072 3073 3074 3075 3076 3077 3078 3079 3081 3081 3082 3082 3084 3084 3085 3089 3092 3094 3095 3095 3095 3095 3096 3096 3097 3097 3096 3096 3095 3095 3095 3095
3006 3007 3008 3010 3012 3014 3016 3017 3019 3021 3022 3024 3025 3026 3027 3028 3028 3029 3030 3031 3032 3033 3034 3035 3036 3036 3037 3039 3040 3041 3041 3043 3044 3045 3046 3048 3050 3050 3051 3052 3053 3054 3054 3055 3057 3059 3060 3062 3063 3062 3063 3064 3066 3067 3069 3070 3071 3073 3073 3074 3075 3077 3078 3079 3080 3082 3082 3082 3084 3086 3085 3086 3090 3092 3093 3095 3095 3095 3095 3095 3096 3096 3095 3095 3095 3095 3094 3094
3006 3007 3009 3010 3012 3014 3016 3018 3020 3021 3023 3024 3025 3026 3027 3027 3028 3029 3030 3031 3032 3033 3035 3035 3035 3036 3036 3038 3040 3041 3042 3043 3044 3045 3047 3049 3050 3051 3051 3052 3053 3054 3054 3055 3057 3058 3060 3062 3063 3063 3064 3065 3066 3067 3069 3070 3071 3072 3072 3073 3075 3076 3077 3079 3080 3081 3082 3081 3082 3084 3085 3086 3088 3090 3092 3093 3094 3094 3094 3094 3094 3094 3094 3094 3095 3094 3094 3093
3006 3007 3009 3011 3013 3015 3017 3018 3020 3021 3023 3024 3025 3026 3027 3028 3029 3030 3031 3031 3032 3034 3035 3035 3035 3036 3036 3038 3039 3040 3042 3043 3045 3046 3048 3049 3050 3051 3052 3053 3053 3054 3054 3055 3056 3057 3059 3062 3063 3063 3064 3066 3067 3067 3068 3069 3070 3071 3072 3073 3075 3076 3077 3078 3079 3080 3081 3081 3081 3081 3083 3085 3087 3089 3090 3091 3092 3093 3093 3093 3093 3093 3093 3094 3094 3093 3093 3092
3006 3008 3010 3012 3013 3015 3017 3019 3020 3021 3023 3024 3025 3026 3028 3028 3029 3030 3031 3032 3033 3034 3035 3035 3035 3036 3037 3038 3039 3040 3041 3043 3044 3046 3047 3049 3050 3051 3052 3053 3053 3054 3054 3054 3055 3056 3058 3061 3062 3063 3064 3067 3068 3068 3068 3069 3070 3071 3072 3073 3075 3077 3077 3078 3079 3080 3080 3081 3081 3081 3082 3084 3086 3087 3089 3090 3091 3092 3092 3092 3092 3092 3092 3092 3092 3092 3092 3092
3007 3009 3011 3012 3014 3016 3017 3019 3021 3022 3023 3024 3026 3027 3028 3029 3030 3031 3032 3032 3034 3035 3036 3036 3036 3037 3038 3038 3039 3040 3042 3043 3044 3045 3047 3048 3050 3051 3052 3053 3054 3054 3055 3055 3055 3056 3057 3060 3061 3062 3064 3067 3069 3069 3069 3070 3070 3071 3073 3074 3075 3077 3077 3078 3079 3080 3081 3081 3082 3083 3083 3084 3085 3086 3088 3089 3090 3090 3091 3091 3091 3092 3092 3091 3092 3092 3092 3092
3008 3010 3012 3013 3015 3017 3018 3020 3021 3023 3024 3025 3027 3027 3028 3029 3031 3031 3032 3033 3034 3035 3036 3037 3037 3038 3039 3039 3040 3041 3042 3044 3045 3046 3048 3049 3050 3050 3051 3052 3053 3054 3055 3055 3056 3057 3057 3059 3060 3061 3063 3067 3069 3070 3070 3070 3071 3073 3074 3075 3077 3077 3078 3078 3079 3080 3081 3082 3083 3083 3083 3084 3085 3086 3088 3089 3089 3090 3091 3091 3091 3091 3091 3091 3091 3091 3092 3092